Regional Weather Roundup
Issued by NWS Wakefield, VA

Home | Current Version | Previous Version | Graphics & Text | Print | Product List | Glossary On
Versions: 1 2 3 4 5 6 7 8 9 10 11 12 13 14 15 16 17 18 19 20 21 22 23 24 25 26 27 28
000
ASUS41 KAKQ 220416
RWRAKQ

REGIONAL WEATHER ROUNDUP
NATIONAL WEATHER SERVICE WAKEFIELD VA
1200 AM EDT TUE AUG 22 2017

Note: "fair" indicates few or no clouds below 12,000 feet with no
significant weather and/or obstructions to visibility. * = Denotes
station may not report precipitation (e.g., rain,snow,etc.),
thunder or fog.

VAZ042-051-052>054-056-220500-
NORTHERN VIRGINIA

CITY           SKY/WX    TMP DP  RH WIND       PRES   REMARKS
WASH NATIONAL  MOCLDY    77  74  90 S7        30.12F
DULLES         PTCLDY    73  70  90 S5        30.12F
FORT BELVOIR   CLEAR     73  72  96 SE3       30.12S
QUANTICO       CLEAR     77  74  90 CALM      30.13S
FREDERICKSBRG* CLEAR     74  74 100 CALM      30.12S FOG
STAFFORD*      FOG       71  71 100 CALM      30.16F VSB 3/4
WARRENTON      CLEAR     70  67  89 CALM      30.12F
CULPEPER*      CLEAR     69  68  98 CALM      30.14S
MANASSAS*      CLEAR     72  70  93 S3        30.12F
LEESBURG*      CLEAR     73  72  94 W3        30.13S
WINCHESTER     CLEAR     70  68  94 S3        30.11F
FRONT ROYAL*   PTCLDY    73  70  88 S3        30.12F
LURAY*         CLEAR     70  70 100 CALM      30.15F
$$

VAZ048-049-060>072-079>083-220500-
CENTRAL AND SOUTH CENTRAL VIRGINIA

CITY           SKY/WX    TMP DP  RH WIND       PRES   REMARKS
RICHMOND       PTCLDY    75  73  93 S6        30.14F
CHESTERFIELD*  FAIR      76  73  91 S5        30.15F
PETERSBURG*    CLEAR     71  71 100 CALM      30.16S
HANOVER        CLEAR     80  70  71 S7        30.15F
TAPPAHANNOCK*  CLEAR     77  74  93 S5        30.14F
QUINTON*       FAIR     N/A N/A N/A CALM      30.14F
CHARLOTTSVILLE CLEAR     77  70  79 CALM      30.14F
GORDONSVILLE*  CLEAR     71  71  99 CALM      30.13F
ORANGE*        CLEAR     70  68  94 CALM      30.14S
LOUISA*        CLEAR     73  72  94 SW3       30.14F
BUMPASS*       FAIR      74  74 100 CALM      30.13F
FARMVILLE*     CLEAR     76  71  84 SW5       30.14F
CREWE*         FAIR      76  72  87 CALM      30.16F
FORT PICKETT*  FAIR     N/A N/A N/A S13       30.16F
CHASE CITY*    FAIR      73  73  99 S3        30.17S
CLARKSVILLE*   FAIR      72  72 100 CALM      30.18S
SOUTH HILL*    CLEAR     71  71 100 CALM      30.23S
LAWRENCEVILLE* FAIR      74  73  96 CALM      30.17S
EMPORIA*         N/A     72  72 100 CALM      30.18R
$$

VAZ088>098-220500-
SOUTHEAST VIRGINIA

CITY           SKY/WX    TMP DP  RH WIND       PRES   REMARKS
NORFOLK        CLEAR     79  76  90 S6        30.16S
VIRGINIA BEACH CLEAR     78  75  90 S3        30.15F
NORFOLK NAVAL  PTCLDY    80  74  81 S5        30.17F
WEST POINT*    CLEAR     77  73  88 SE3       30.16S
SALUDA*        FAIR      78  75  91 S5        30.14F
NEWPORT NEWS   PTCLDY    79  74  84 S7        30.15F
LANGLEY AFB    CLEAR     79  76  88 S8        30.15F
FORT EUSTIS    CLEAR     80  75  84 S6        30.13F
WILLIAMSBURG*  CLEAR     81  75  83 S3        30.16S
HR EXEC AP*    FAIR      75  72  88 S5        30.14S
FRANKLIN*      CLEAR     74  73  93 CALM      30.16S
US460-WAKEFLD  CLEAR     75  74  96 CALM      30.16S
$$

VAZ020-022-025-037-045-220500-
WEST CENTRAL AND SOUTHWEST VIRGINIA

CITY           SKY/WX    TMP DP  RH WIND       PRES   REMARKS
STAUNTON*      CLEAR     72  68  86 CALM      30.19S
WAYNESBORO*    CLEAR     74  70  86 S5        30.19S
HOT SPRINGS VA CLEAR     70  61  73 CALM      30.33S
LYNCHBURG      CLEAR     71  70  96 CALM      30.18F FOG
DANVILLE       CLEAR     71  70  96 CALM      30.17F
SOUTH BOSTON*  FAIR      72  71  95 CALM      30.17S
MARTINSVILLE   CLEAR     70  69  96 CALM      30.22S FOG
ROANOKE        PTCLDY    73  72  96 W3        30.21F
BLACKSBURG     CLEAR     71  70  97 CALM      30.28S
DUBLIN*        CLEAR     70  69  99 CALM      30.26S FOG
MARION*        CLEAR     69  40  35 CALM      30.30S
HILLSVILLE*    PTCLDY    71  65  82 CALM      30.28S
RICHLANDS*     FAIR      72  62  70 CALM      30.27F
WISE*          CLEAR     72  61  68 CALM      30.28S
ABINGDON*      CLEAR     72  69  92 CALM      30.24S
$$

MDZ021>025-VAZ099-100-220500-
SOUTHERN MARYLAND AND THE DELMARVA PENINSULA

CITY           SKY/WX    TMP DP  RH WIND       PRES   REMARKS
PATUXENT RIVER CLEAR     78  77  96 S6        30.12F
BAY BRIDGE APT PTCLDY    77  75  94 S3        30.12S
LEONARDTOWN    PTCLDY    77  73  88 S3        30.14S
DOVER          CLEAR     75  75 100 S8        30.10F
GEORGETOWN     PTCLDY    76  71  85 S7        30.14S
EASTON         CLEAR     78  74  85 S5        30.15F
CAMBRIDGE      CLEAR     77  75  94 S3        30.12F
SALISBURY      CLEAR     75  74  96 S5        30.14F
OCEAN CITY     CLEAR     78  76  93 SW8       30.15F
WALLOPS ISLAND CLOUDY    78  78 100 S10       30.15F
ACCOMACK*      MOCLDY    79  77  94 SW7       30.15S
$$

NCZ012>017-030>032-220500-
NORTH CENTRAL AND EASTERN NORTH CAROLINA

CITY           SKY/WX    TMP DP  RH WIND       PRES   REMARKS
ROANOKE RAPIDS FAIR      72  72 100 CALM      30.17S
RALEIGH        PTCLDY    77  71  82 S3        30.18F
ELIZABETH CITY CLEAR     77  76  96 S3        30.16F
AHOSKIE*         N/A     72  72  99 CALM      30.17F
EDENTON*       CLEAR     81  76  86 CALM      30.17F
CURRITUCK*     CLEAR     77  75  92 CALM      30.17F
KILL DEVIL HLS CLEAR     77  73  88 CALM      30.16S
MANTEO         CLEAR     78  73  84 S5        30.17F
CAPE HATTERAS  CLEAR     76  74  93 CALM      30.17F
TARBORO*       NOT AVBL
GOLDSBORO      CLEAR     78  73  84 W2        30.18S
WASHINGTON     CLEAR     75  74  96 CALM      30.17F
GREENVILLE     CLEAR     75  73  94 SW3       30.18S
NEW BERN       CLEAR     75  75 100 CALM      30.18S
WILMINGTON     PTCLDY    78  77  96 CALM      30.17R
$$

VAZ048-220500-
ELSEWHERE

CITY           SKY/WX    TMP DP  RH WIND       PRES   REMARKS
HARRISBURG PA  PTCLDY    73  71  93 S3        30.10F
BALTIMORE      MOCLDY    73  72  96 CALM      30.11F
ANNAPOLIS      PTCLDY    78  75  90 CALM      30.11F
ANDREWS AFB    CLEAR     72  69  89 S5        30.12S
PHILADELPHIA   CLOUDY    79  73  82 W8        30.12S
HENDERSON NC   CLEAR     73  69  86 S3        30.19S
GREENSBORO     PTCLDY    75  68  78 S5        30.19S
ROCKY MOUNT    CLEAR     73  73 100 CALM      30.17S
$$

VAZ100-220500-
MARINE

STATION/POSITION TIME  TEMP    WIND        PRES    WAVE   SWELL
                       AIR SEA DIR/SP/G            HT/PER HT/PER
                 (UTC) (F)     (DEG/KT/KT) (MB)    (FT/S) (FT/S)
BRANDYWINE LGT   0348   77     210/ 14/ 15 1020.3F
CAPE MAY NJ      0348   77 78  200/  6/  9 1019.6F
LEWES DE         0348   77 78  210/  5/  8 1019.9F
15NM E FENWICK I 0350   78 78  180/ 14/ 16 1021.0F   2/14   2/14
OCEAN-CITY-INLET 0348   78 78  220/ 10/ 12 1021.4F
WACHAPREAGUE VA  0348   80 83  220/  8/ 13 1021.0F
THOMAS POINT MD  0400   79 81  200/ 11/ 12   N/A
GOOSES REEF MD   0400   81 81  190/  8/ 10 1020.4    1/ 3
COVE POINT MD    0348   79     210/ 10/ 12 1020.6F
SOLOMONS ISLAND  0348   80 83  200/  6/  8   N/A
BISHOPS HEAD MD  0348   82 81  200/ 12/ 15 1020.3F
PINEY POINT MD   0348          190/  7/  9   N/A
POTOMAC MD       0400   81 82  180/ 12/ 14 1019.5    1/ 2
CAMBRIDGE MD     0348   78 83              1020.8F
LEWISETTA VA     0348   80 83  200/  8/ 10 1020.2F
RAPPAHANNOCK LGT 0348          170/ 14/ 15 1021.7F
STINGRAY PT      0400   82 82  220/ 10/ 12 1021.1    1
YORK RVR RNG VA  0348   82     200/ 12/ 14 1021.4F
YORKTOWN VA      0348   80 84  200/  3/  5 1020.7F
JAMESTOWN VA     0400      85  160/  8/ 10   N/A     0
DOMINION TERM VA 0348   80     170/  9/ 10 1021.3F
KIPTOPEKE VA     0348      81  190/ 11/ 13   N/A
CHES BAY BRIDGE  0348   80 78  190/  7/  8 1021.2F
CAPE HENRY VA    0348   78     160/  4/  5   N/A
WILLOUBY STN VA  0348   81     120/  3/  7 1021.2F
S CRANEY ISL VA  0348   81     180/  5/  8 1021.1F
CAPE HENRY BUOY  0400      80                N/A     2/11
1ST LANDING BUOY 0400   80 79              1021.3    1
64NM E OF VA BCH 0350   79 80  190/  4/  4 1022.1F   2/10   2/10
DUCK PIER NC     0348   80 77  160/  6/  8 1021.1F
44100 DUCK FRF   0305      81                N/A     2/10
44056 DUCK FRF   0400      81                N/A     2/ 9   2/11
OREGON INLET NC  0348          130/  3/  4 1021.5F
HATTERAS NC      0348   80 82  120/  2/  3 1021.5F
DIAMOND SHLS NC  0350   83 84  140/  2/  4 1021.4F   2/ 8   2/ 8
CAPE LOOKOUT NC  0400   81     160/  5/  5 1021.3S
$$




USA.gov is the U.S. government's official web portal to all federal, state and local government web resources and services.